Total_Precipitation_Accumulation
0.43 0.51 0.61 0.74 0.88 0.98 1.07 1.13 1.21 1.32 1.52 1.64 1.66 1.63 1.74 1.77 1.80 1.79 1.69 1.57 1.46 1.35 1.22 1.07 0.96 0.95 0.88 0.80 0.71 0.64 0.65 0.65 0.64 0.65 0.60 0.55 0.51 0.46 0.42 0.45 0.57 0.69 0.70
0.50 0.55 0.69 0.83 0.89 0.91 1.02 1.13 1.16 1.24 1.32 1.37 1.43 1.48 1.52 1.59 1.66 1.73 1.77 1.75 1.64 1.48 1.38 1.25 1.09 0.96 0.92 0.87 0.80 0.72 0.67 0.63 0.58 0.62 0.66 0.59 0.53 0.48 0.38 0.32 0.39 0.50 0.59
0.45 0.47 0.60 0.83 0.93 0.91 0.98 1.07 1.13 1.18 1.30 1.42 1.52 1.58 1.70 1.75 1.68 1.63 1.66 1.71 1.68 1.57 1.45 1.35 1.25 1.15 1.02 0.94 0.90 0.85 0.78 0.72 0.64 0.58 0.74 0.77 0.59 0.42 0.31 0.28 0.30 0.32 0.37
0.44 0.44 0.52 0.74 0.92 0.90 1.01 1.13 1.20 1.28 1.35 1.50 1.53 1.44 1.40 1.47 1.41 1.41 1.41 1.53 1.67 1.64 1.54 1.50 1.45 1.30 1.16 1.01 0.92 0.92 0.91 0.88 0.83 0.72 0.65 0.64 0.60 0.63 0.45 0.27 0.24 0.23 0.24
0.45 0.44 0.47 0.65 0.87 0.95 1.02 1.19 1.26 1.35 1.44 1.48 1.53 1.43 1.32 1.29 1.36 1.48 1.55 1.51 1.54 1.64 1.60 1.49 1.47 1.40 1.27 1.17 1.07 0.94 0.93 0.94 0.93 0.87 0.76 0.68 0.57 0.54 0.65 0.45 0.28 0.27 0.25
0.46 0.50 0.52 0.64 0.79 0.91 1.02 1.13 1.30 1.35 1.49 1.50 1.52 1.40 1.28 1.22 1.27 1.35 1.54 1.61 1.60 1.62 1.64 1.56 1.51 1.42 1.29 1.21 1.20 1.10 0.98 0.93 0.93 0.92 0.87 0.85 0.81 0.66 0.67 0.62 0.39 0.33 0.31
0.50 0.51 0.52 0.60 0.69 0.82 0.95 1.06 1.20 1.39 1.48 1.51 1.46 1.37 1.26 1.18 1.17 1.20 1.32 1.43 1.51 1.58 1.59 1.57 1.50 1.41 1.31 1.18 1.16 1.17 1.10 1.02 1.01 1.01 0.95 0.89 0.83 0.77 0.79 0.83 0.65 0.47 0.37
0.55 0.54 0.50 0.56 0.64 0.76 0.88 1.02 1.12 1.33 1.48 1.49 1.47 1.43 1.30 1.20 1.15 1.16 1.18 1.24 1.22 1.29 1.41 1.51 1.54 1.40 1.25 1.18 1.14 1.13 1.09 1.09 1.08 1.03 1.01 0.99 0.89 0.86 0.91 0.99 1.05 0.93 0.59
0.56 0.58 0.52 0.56 0.62 0.74 0.84 0.95 1.07 1.22 1.42 1.53 1.56 1.52 1.39 1.27 1.18 1.15 1.15 1.21 1.17 1.10 1.16 1.32 1.46 1.53 1.45 1.30 1.21 1.17 1.09 1.09 1.12 1.09 1.07 1.08 0.98 0.90 0.88 0.94 1.14 1.40 1.16
0.48 0.52 0.49 0.52 0.61 0.72 0.82 0.90 1.02 1.13 1.28 1.40 1.51 1.55 1.52 1.38 1.30 1.26 1.19 1.14 1.16 1.16 1.11 1.12 1.21 1.32 1.42 1.44 1.37 1.30 1.19 1.14 1.11 1.10 1.14 1.15 1.13 1.10 1.02 0.97 0.99 1.17 1.36
0.45 0.46 0.45 0.49 0.57 0.71 0.81 0.86 0.94 1.08 1.22 1.29 1.34 1.45 1.57 1.43 1.36 1.35 1.28 1.18 1.12 1.16 1.17 1.15 1.21 1.27 1.31 1.36 1.42 1.38 1.33 1.32 1.26 1.21 1.22 1.21 1.22 1.30 1.29 1.23 1.17 1.13 1.23
0.43 0.42 0.43 0.48 0.52 0.62 0.76 0.84 0.91 0.96 1.11 1.23 1.27 1.34 1.49 1.49 1.38 1.37 1.35 1.23 1.14 1.12 1.16 1.18 1.21 1.30 1.36 1.37 1.44 1.43 1.39 1.44 1.40 1.31 1.27 1.25 1.27 1.33 1.37 1.45 1.40 1.27 1.19
0.41 0.40 0.43 0.50 0.53 0.58 0.69 0.80 0.89 0.90 0.98 1.15 1.20 1.29 1.39 1.45 1.40 1.35 1.39 1.35 1.30 1.31 1.28 1.30 1.35 1.38 1.43 1.47 1.52 1.56 1.56 1.59 1.58 1.51 1.46 1.36 1.35 1.40 1.38 1.44 1.47 1.39 1.29
0.40 0.40 0.43 0.50 0.55 0.59 0.65 0.73 0.79 0.87 0.94 1.10 1.21 1.22 1.29 1.33 1.35 1.38 1.37 1.46 1.51 1.56 1.60 1.57 1.55 1.57 1.63 1.73 1.81 1.86 1.85 1.79 1.73 1.68 1.64 1.58 1.51 1.50 1.50 1.53 1.49 1.44 1.45
0.39 0.39 0.44 0.50 0.53 0.58 0.62 0.64 0.70 0.77 0.86 1.02 1.13 1.17 1.22 1.35 1.43 1.47 1.50 1.50 1.60 1.65 1.64 1.67 1.68 1.64 1.80 2.10 2.22 2.09 1.91 1.76 1.67 1.60 1.58 1.62 1.72 1.72 1.76 1.84 1.72 1.63 1.69
0.40 0.41 0.46 0.50 0.53 0.55 0.58 0.57 0.61 0.70 0.81 0.96 1.03 1.08 1.20 1.32 1.47 1.50 1.57 1.60 1.62 1.66 1.66 1.64 1.66 1.63 1.71 2.15 2.28 1.90 1.57 1.49 1.53 1.52 1.42 1.40 1.59 1.65 1.74 1.88 1.87 1.87 1.93
0.38 0.39 0.47 0.52 0.55 0.56 0.54 0.55 0.58 0.62 0.70 0.84 0.94 1.01 1.15 1.23 1.33 1.37 1.39 1.45 1.41 1.38 1.44 1.51 1.47 1.44 1.55 1.93 2.01 1.71 1.28 1.18 1.25 1.30 1.27 1.23 1.27 1.48 1.44 1.57 1.65 1.70 1.82
0.40 0.38 0.44 0.48 0.49 0.53 0.56 0.56 0.56 0.60 0.69 0.76 0.86 0.89 1.01 1.13 1.17 1.23 1.26 1.28 1.23 1.21 1.28 1.30 1.23 1.17 1.25 1.63 1.77 1.56 1.16 1.10 1.15 1.18 1.19 1.17 1.17 1.32 1.52 1.58 1.49 1.41 1.48
0.40 0.38 0.41 0.44 0.45 0.50 0.54 0.56 0.57 0.59 0.64 0.71 0.77 0.80 0.88 1.05 1.06 1.12 1.20 1.17 1.20 1.19 1.16 1.13 1.08 1.03 1.08 1.39 1.67 1.53 1.08 1.11 1.13 1.14 1.20 1.16 1.09 1.39 1.61 1.57 1.48 1.37 1.34
0.37 0.38 0.41 0.41 0.45 0.48 0.48 0.50 0.53 0.55 0.60 0.67 0.74 0.75 0.80 0.91 0.92 0.96 1.04 1.06 1.06 1.11 1.14 1.11 1.04 1.01 0.98 1.22 1.60 1.63 1.17 1.15 1.13 1.12 1.17 1.32 1.28 1.45 1.53 1.43 1.46 1.50 1.32
0.42 0.40 0.41 0.44 0.47 0.49 0.50 0.51 0.50 0.51 0.56 0.62 0.67 0.72 0.77 0.83 0.84 0.86 0.91 0.97 1.01 1.05 1.10 1.12 1.05 0.95 0.95 1.05 1.36 1.71 1.41 1.21 1.13 1.13 1.16 1.19 1.38 1.40 1.46 1.47 1.42 1.57 1.43
0.46 0.43 0.44 0.47 0.48 0.48 0.48 0.47 0.51 0.50 0.52 0.59 0.67 0.72 0.75 0.78 0.79 0.82 0.88 0.91 0.99 1.11 1.13 1.10 1.09 1.02 0.98 1.01 1.18 1.47 1.58 1.42 1.20 1.13 1.01 1.03 1.23 1.28 1.38 1.38 1.44 1.52 1.46
0.44 0.43 0.45 0.49 0.50 0.50 0.48 0.46 0.50 0.50 0.52 0.58 0.64 0.71 0.76 0.75 0.80 0.84 0.90 0.95 1.03 1.13 1.14 1.08 1.05 1.04 1.02 1.07 1.25 1.27 1.33 1.42 1.26 1.18 1.22 1.14 1.19 1.21 1.17 1.22 1.34 1.34 1.28
0.40 0.40 0.42 0.47 0.50 0.50 0.50 0.50 0.51 0.52 0.55 0.59 0.61 0.66 0.76 0.80 0.81 0.85 0.90 0.92 0.97 1.12 1.18 1.14 1.11 1.03 1.00 1.11 1.32 1.26 1.19 1.29 1.30 1.29 1.28 1.24 1.22 1.20 1.15 1.16 1.14 1.12 1.19
0.39 0.38 0.41 0.44 0.49 0.50 0.50 0.51 0.55 0.59 0.61 0.60 0.60 0.63 0.72 0.79 0.80 0.83 0.87 0.92 0.92 1.13 1.32 1.24 1.23 1.20 1.21 1.28 1.49 1.47 1.39 1.41 1.42 1.43 1.41 1.33 1.28 1.26 1.17 1.10 1.06 1.08 1.15
0.39 0.38 0.37 0.42 0.45 0.47 0.50 0.53 0.60 0.65 0.67 0.66 0.65 0.67 0.73 0.75 0.77 0.80 0.86 0.97 0.99 1.06 1.08 1.13 1.22 1.19 1.30 1.37 1.33 1.38 1.43 1.44 1.48 1.50 1.45 1.25 1.14 1.13 1.08 1.06 1.05 1.02 1.02